TimeCST,TemperatureF,Dew PointF,Humidity,Sea Level PressureIn,VisibilityMPH,Wind Direction,Wind SpeedMPH,Gust SpeedMPH,PrecipitationIn,Events,Conditions,WindDirDegrees,DateUTC
12:54 AM,53.1,42.1,66,30.11,10.0,North,10.4,-,N/A,,Overcast,10,2012-11-04 05:54:00
1:54 AM,51.1,39.9,66,30.11,10.0,North,9.2,-,N/A,,Overcast,360,2012-11-04 06:54:00
1:54 AM,50.0,39.9,68,30.10,10.0,North,8.1,-,N/A,,Overcast,360,2012-11-04 07:54:00
2:54 AM,48.9,39.0,69,30.10,10.0,North,9.2,-,N/A,,Overcast,10,2012-11-04 08:54:00
3:54 AM,48.0,39.0,71,30.12,10.0,North,10.4,-,N/A,,Overcast,360,2012-11-04 09:54:00
4:54 AM,46.9,39.0,74,30.14,10.0,NNE,13.8,-,N/A,,Overcast,20,2012-11-04 10:54:00
5:54 AM,46.0,39.0,76,30.14,10.0,NNE,11.5,-,N/A,,Scattered Clouds,30,2012-11-04 11:54:00
6:54 AM,45.0,39.0,80,30.17,9.0,NNE,6.9,-,N/A,,Mostly Cloudy,20,2012-11-04 12:54:00
7:54 AM,46.0,39.0,76,30.20,10.0,North,8.1,-,N/A,,Mostly Cloudy,10,2012-11-04 13:54:00
8:54 AM,48.9,39.9,71,30.19,9.0,NNE,6.9,-,N/A,,Partly Cloudy,20,2012-11-04 14:54:00
9:54 AM,52.0,37.9,59,30.20,10.0,NE,9.2,-,N/A,,Scattered Clouds,40,2012-11-04 15:54:00
10:54 AM,55.9,37.9,51,30.19,10.0,NNE,8.1,-,N/A,,Scattered Clouds,30,2012-11-04 16:54:00
11:54 AM,57.0,37.9,49,30.18,10.0,Calm,Calm,-,N/A,,Scattered Clouds,0,2012-11-04 17:54:00
12:54 PM,59.0,37.0,44,30.16,10.0,NNE,6.9,-,N/A,,Mostly Cloudy,30,2012-11-04 18:54:00
1:54 PM,61.0,37.0,41,30.14,10.0,NNW,4.6,-,N/A,,Mostly Cloudy,340,2012-11-04 19:54:00
2:54 PM,61.0,36.0,39,30.14,10.0,North,6.9,-,N/A,,Partly Cloudy,360,2012-11-04 20:54:00
3:54 PM,59.0,36.0,42,30.14,10.0,North,6.9,-,N/A,,Partly Cloudy,10,2012-11-04 21:54:00
4:54 PM,57.0,35.1,44,30.13,10.0,NNE,6.9,-,N/A,,Partly Cloudy,30,2012-11-04 22:54:00
5:54 PM,55.0,37.0,51,30.14,10.0,NE,5.8,-,N/A,,Partly Cloudy,40,2012-11-04 23:54:00
6:54 PM,51.1,37.9,61,30.15,10.0,North,5.8,-,N/A,,Partly Cloudy,10,2012-11-05 00:54:00
7:54 PM,50.0,37.0,61,30.15,10.0,NNE,5.8,-,N/A,,Clear,30,2012-11-05 01:54:00
8:54 PM,48.9,36.0,61,30.16,10.0,NNE,4.6,-,N/A,,Clear,30,2012-11-05 02:54:00
9:54 PM,48.9,37.0,64,30.15,10.0,Calm,Calm,-,N/A,,Clear,0,2012-11-05 03:54:00
10:54 PM,46.9,37.9,71,30.14,10.0,NE,3.5,-,N/A,,Clear,50,2012-11-05 04:54:00